Home > Weather > Napa > Past weeks

Flag for USA Weather for the Past 2 Weeks in Napa, California, USA

Now
54 °F

Clear.


Feels Like: 54 °F
Forecast: 55 / 72 °F
Wind: 3 mph from West

Location: Napa County Airport

Current Time: May 4, 2016 at 5:31:55 AM

Latest Report: May 4, 2016 at 3:54 AM


Visibility: 10 mi

Pressure: 29.84 "Hg

Humidity: 93%

Dew Point: 52 °F

Location of NapaLocation

Historic Weather in Napa — Graph

°F

Napa Temperature Yesterday

Maximum temperature yesterday: 70 °F (at 3:54 PM)
Minimum temperature yesterday: 50 °F (at 4:54 AM)
Average temperature yesterday: 59 °F

High & Low Weather Summary for the Past Weeks

 TemperatureHumidityPressure
High83 °F (May 1, 2:54 PM)100% (Apr 23, 6:54 AM)30.18 "Hg (Apr 23, 6:54 AM)
Low39 °F (Apr 26, 3:54 AM)26% (May 1, 2:54 PM)29.75 "Hg (Apr 22, 5:54 AM)
Average58 °F71%29.93 "Hg
* Reported Apr 19 3:54 AM — May 4 3:54 AM, Napa, Weather by CustomWeather, © 2016

Note: Actual official high and low records may vary slightly from our data, if they occured in-between our weather recording intervals... More about our weather records

Advertising

Napa Weather History for the Previous 24 Hours

Scroll right to see more
 ConditionsComfort  
Time TempWeatherWind HumidityBarometerVisibility
3:54 AM
Wed, May 4
54 °FClear.3 mph93%29.84 "Hg10 mi
2:54 AM54 °FClear.No wind90%29.85 "Hg10 mi
1:54 AM54 °FPassing clouds.5 mph90%29.88 "Hg10 mi
12:54 AM55 °FClear.3 mph87%29.88 "Hg10 mi
11:54 PM
Tue, May 3
56 °FClear.7 mph84%29.89 "Hg10 mi
10:54 PM57 °FClear.8 mph83%29.90 "Hg10 mi
9:54 PM58 °FClear.10 mph75%29.90 "Hg10 mi
8:54 PM59 °FSunny.9 mph75%29.88 "Hg10 mi
7:54 PM62 °FSunny.8 mph67%29.86 "Hg10 mi
6:54 PM66 °FSunny.5 mph65%29.86 "Hg10 mi
5:54 PM67 °FSunny.9 mph71%29.87 "Hg10 mi
4:54 PM70 °FSunny.10 mph66%29.88 "Hg10 mi
3:54 PM70 °FSunny.8 mph64%29.90 "Hg10 mi
2:54 PM67 °FSunny.8 mph68%29.92 "Hg10 mi
1:54 PM66 °FSunny.8 mph70%29.94 "Hg10 mi
12:54 PM67 °FPassing clouds.8 mph68%29.96 "Hg10 mi
11:54 AM63 °FPassing clouds.7 mph73%29.96 "Hg10 mi
10:54 AM60 °FPartly sunny.7 mph78%29.97 "Hg10 mi
9:54 AM58 °FOvercast.No wind81%29.97 "Hg10 mi
8:54 AM56 °FPassing clouds.3 mph87%29.97 "Hg10 mi
7:54 AM53 °FSunny.6 mph93%29.97 "Hg10 mi
6:54 AM50 °FClear.No wind96%29.96 "Hg10 mi
5:54 AM51 °FClear.No wind92%29.96 "Hg10 mi
Weather by CustomWeather, © 2016

See weather overviewHow to use our weather pages